Theta_e
300 300 301 301 301 301 301 301 301 302 302 303 303 303 304 303 303 304 302 306 299 293 296 300 301 299 300 302 299 302 304 307 307 305 303 303 302 304 303 305 304 303 302 302 304 300 297 314 312 305 314 317 317 318
301 301 301 301 301 301 301 301 301 301 302 303 303 303 304 303 303 304 300 304 305 295 296 302 303 304 302 302 299 301 303 305 308 306 308 306 303 306 304 299 309 302 307 304 305 305 317 317 317 321 319 317 318 319
300 301 300 301 301 301 301 301 300 301 302 302 302 303 304 303 304 304 302 304 301 296 297 297 297 303 307 306 307 297 306 305 310 310 308 308 303 307 301 302 305 309 311 308 309 311 314 316 320 321 321 321 322 323
300 300 300 300 300 301 301 300 300 301 302 302 303 303 303 303 303 303 301 304 301 297 292 297 305 302 305 306 305 305 304 307 307 308 307 307 303 309 305 306 307 309 311 309 308 311 312 315 319 320 320 321 319 319
299 299 299 300 300 300 300 300 300 301 301 301 302 302 303 303 303 303 303 303 301 296 291 295 301 303 305 305 303 304 304 305 304 305 305 306 309 308 312 309 306 311 310 305 304 312 312 316 320 320 319 318 318 318
299 299 299 300 300 300 300 300 300 300 301 301 302 301 302 303 303 301 296 303 303 302 294 292 301 301 303 304 304 304 304 304 303 303 306 307 303 305 302 300 309 312 314 315 312 318 319 321 321 320 319 319 319 318
298 299 299 300 300 300 300 300 300 300 300 301 301 301 302 302 304 297 296 299 303 305 295 292 296 300 303 304 303 302 304 303 302 302 303 305 304 305 304 298 308 311 313 315 318 319 317 319 318 320 319 319 317 319
298 299 299 299 300 300 298 298 299 300 298 300 301 301 302 303 302 298 302 303 304 299 299 292 293 296 303 297 296 303 299 300 300 300 301 302 302 304 300 303 305 309 312 313 314 317 318 320 322 320 320 319 317 316
299 299 299 299 300 299 298 298 298 299 299 300 301 301 302 299 297 301 303 304 305 298 293 293 292 290 301 299 301 299 301 293 300 295 297 299 298 297 301 301 302 303 307 307 310 314 316 316 318 319 319 318 317 316
299 299 299 299 299 299 298 298 298 299 298 299 300 296 292 300 302 304 300 296 296 297 296 292 295 289 297 297 296 296 297 293 289 294 298 292 294 303 303 305 307 305 304 305 304 307 312 313 315 317 318 319 318 318
299 299 299 299 299 299 298 298 298 299 299 299 294 293 301 301 300 295 291 290 291 289 293 294 292 291 299 292 293 299 295 294 289 292 291 290 290 299 304 304 307 307 308 306 307 308 309 311 312 315 316 318 318 319
299 299 299 299 299 299 298 298 299 298 300 298 299 301 302 295 292 288 287 290 288 286 292 290 292 293 295 299 294 296 293 295 287 296 291 288 298 303 304 304 305 307 308 308 306 306 309 307 312 315 315 317 318 319
300 299 299 299 299 298 298 298 299 300 300 302 297 293 292 291 283 283 282 285 287 291 293 292 292 295 295 297 293 294 290 290 297 291 288 295 299 301 302 303 304 306 307 308 307 306 306 306 313 315 314 316 317 319
300 300 299 299 299 298 298 298 298 299 296 292 289 283 286 284 287 289 291 291 295 297 296 295 293 293 294 290 292 289 293 294 288 286 288 295 299 299 300 301 301 302 305 307 309 309 309 310 312 314 315 317 319 318
300 299 299 299 299 298 298 299 300 301 294 289 289 283 285 292 294 293 295 296 294 298 296 294 293 293 290 289 294 292 288 286 288 289 295 296 296 298 298 298 299 302 304 306 309 312 313 314 316 317 319 319 319 318
300 299 299 299 299 299 299 299 300 300 296 292 290 287 292 290 290 293 294 293 296 297 298 296 288 289 287 292 288 286 286 285 291 297 298 299 300 299 300 300 301 302 304 305 308 310 313 315 316 318 319 318 317 317
299 300 299 300 300 300 299 298 298 292 292 288 289 292 291 291 290 290 291 296 301 296 291 293 287 286 295 289 287 293 291 294 297 297 299 300 299 301 301 301 300 301 303 304 307 310 310 313 317 317 315 316 317 317
300 300 300 300 300 299 300 299 295 291 286 291 289 292 292 292 291 292 296 297 295 297 296 291 295 288 287 285 289 294 295 297 298 299 300 301 301 302 301 301 301 301 302 304 305 309 310 311 312 315 315 315 313 312
300 301 300 299 299 297 293 293 296 289 291 293 294 295 294 293 295 298 299 301 300 301 299 297 290 290 292 296 295 296 297 298 298 300 301 301 301 300 300 300 301 301 303 304 305 308 309 310 312 312 313 314 311 310
300 300 299 298 299 297 290 294 297 291 290 292 295 294 295 295 297 299 299 299 299 298 293 292 294 296 297 299 300 300 300 300 298 296 297 299 301 300 300 300 301 303 304 305 307 296 311 310 313 312 311 311 310 307
298 299 299 299 300 299 295 294 293 293 295 294 296 295 295 297 296 297 297 300 296 295 294 296 297 298 299 298 298 299 298 299 297 297 297 296 299 300 300 301 302 303 303 305 305 305 302 311 310 312 310 307 308 305
300 298 301 300 296 295 295 297 293 296 294 295 295 296 295 294 295 296 297 295 295 296 297 296 295 296 295 294 296 298 298 298 299 298 294 296 297 298 299 301 302 302 303 304 305 305 308 312 311 310 308 306 302 301
299 300 299 296 290 290 289 297 291 293 288 291 295 291 293 294 296 298 293 296 296 299 297 295 295 295 293 293 294 294 295 294 293 294 295 296 297 298 298 299 301 301 303 304 306 307 309 299 300 305 304 302 301 300
296 294 289 289 290 287 293 290 294 293 293 291 290 287 290 293 296 294 290 294 295 294 293 292 291 289 289 289 288 289 292 293 293 294 295 295 295 297 299 299 300 300 304 306 306 307 309 305 299 302 302 301 301 304
288 286 289 286 292 288 286 287 288 290 286 289 288 288 292 296 290 289 287 291 290 289 289 289 288 287 286 286 289 294 300 297 293 292 295 295 296 297 298 300 300 300 304 305 305 306 308 305 303 302 302 303 304 304
282 286 285 287 288 286 288 285 287 287 288 288 289 293 295 290 285 284 287 288 288 287 286 285 285 286 288 293 294 296 303 303 301 298 297 297 297 296 296 297 297 299 306 307 307 306 305 304 302 302 303 302 294 304
282 283 288 294 292 290 289 291 294 291 287 286 288 288 288 283 283 287 290 290 286 287 288 289 292 293 294 295 296 298 303 304 299 297 298 299 300 301 301 298 298 304 307 308 309 307 305 303 303 302 302 305 307 306
288 290 285 289 290 291 287 288 287 286 287 290 289 284 283 282 283 288 287 287 287 289 295 297 297 298 298 297 298 302 305 303 301 301 301 302 303 304 304 306 308 292 309 313 310 309 307 305 302 301 302 306 306 307
289 294 292 288 289 290 288 288 288 290 291 290 286 285 285 288 287 286 285 288 295 296 295 295 296 298 300 300 300 300 304 303 301 299 298 298 300 304 311 310 310 312 307 304 290 300 305 304 304 307 308 307 307 307
290 296 289 289 287 285 289 292 290 292 292 291 291 289 288 287 286 290 293 295 294 294 296 296 297 296 295 296 298 299 299 300 302 300 298 298 300 304 306 305 305 305 305 303 301 298 291 303 301 307 306 306 306 306
296 294 289 289 288 291 293 295 294 293 292 291 291 289 288 288 291 294 293 297 298 299 298 296 297 296 295 294 293 293 297 298 299 304 303 304 305 304 304 305 306 306 307 305 304 305 305 306 307 306 306 306 305 304
295 290 289 286 288 294 297 293 291 290 290 290 290 292 292 292 290 292 296 299 297 297 292 295 295 295 298 299 300 297 290 292 291 295 305 305 305 305 307 308 309 308 307 307 306 306 305 305 305 305 305 305 305 305
292 292 291 291 291 290 293 292 290 289 290 289 290 291 291 291 288 293 299 300 298 297 297 298 298 298 299 299 301 302 299 296 290 287 287 287 287 297 308 309 309 307 306 305 305 305 305 306 305 305 305 305 305 305
Wind_Speed
6 8 8 9 7 6 5 5 7 6 7 9 9 9 8 5 4 6 2 5 7 7 12 10 7 7 5 2 5 7 6 6 5 8 10 4 7 10 11 11 16 13 11 9 10 11 10 12 8 10 5 6 7 5
8 10 10 8 8 10 10 8 7 8 10 8 9 9 8 6 6 7 4 4 4 7 8 11 14 15 14 12 8 4 6 3 5 5 3 3 6 4 12 10 1 11 5 5 6 6 8 7 2 6 1 5 5 6
9 7 5 7 7 8 8 5 6 8 9 8 9 9 8 7 7 7 5 2 5 4 10 12 10 9 10 13 10 6 3 6 1 4 5 3 6 5 8 7 12 4 3 4 7 7 8 6 4 2 2 3 5 7
7 8 7 6 7 6 5 5 6 8 8 7 7 8 7 7 7 9 6 2 5 5 6 2 1 5 3 8 11 13 8 4 6 4 4 3 3 2 8 4 10 4 8 8 5 6 4 5 2 4 6 8 9 9
5 4 4 5 7 5 4 5 6 7 6 6 7 6 8 7 6 8 6 5 5 5 5 7 12 2 5 7 9 10 7 5 3 4 5 2 2 4 1 4 4 5 6 7 4 4 5 6 6 7 9 10 9 11
7 6 5 5 6 6 5 6 6 7 6 5 7 4 5 7 7 6 4 5 4 3 5 4 4 2 3 9 8 7 4 3 3 3 2 2 2 5 6 6 7 6 4 5 4 5 6 7 7 7 9 10 9 10
9 8 7 6 7 7 7 5 5 6 3 7 6 3 2 3 6 4 4 2 3 2 5 4 2 5 4 8 5 5 3 1 2 1 1 2 2 4 3 6 8 6 5 6 5 7 8 8 6 8 10 10 9 11
10 10 8 7 7 8 4 1 1 3 0 6 6 3 7 7 7 7 8 8 4 5 5 4 2 5 6 5 5 1 3 3 1 1 2 2 2 3 4 8 5 3 5 5 4 2 5 6 8 9 10 11 12 11
12 10 9 8 8 6 2 3 2 4 4 5 7 8 5 6 5 1 5 8 4 4 4 3 2 2 4 5 3 4 2 4 3 4 3 4 4 5 6 4 3 3 1 6 3 3 3 4 8 10 9 10 10 11
13 11 9 8 6 7 4 3 4 5 2 8 6 4 4 1 2 6 4 6 6 5 5 4 4 2 6 7 6 6 3 3 6 3 4 5 8 8 4 3 1 2 3 4 5 6 5 5 6 8 8 7 8 10
12 12 9 8 6 7 3 4 4 6 10 4 4 2 1 2 4 4 5 5 6 5 6 3 5 1 4 6 4 2 3 5 4 6 5 6 6 9 5 3 4 3 5 7 7 8 5 5 5 7 7 7 8 11
13 13 10 8 6 8 4 3 9 3 2 3 1 3 4 5 4 3 5 5 6 5 5 6 6 4 3 1 2 3 4 4 5 8 5 5 5 9 6 3 4 4 4 9 11 9 9 6 7 5 6 7 8 8
13 13 10 8 6 7 3 4 4 5 4 3 3 3 3 4 4 5 8 5 4 5 5 7 7 5 6 2 4 5 8 4 7 7 6 5 9 6 3 4 4 5 3 4 8 7 7 6 6 8 8 7 7 8
13 14 11 8 9 6 4 0 2 0 2 2 3 4 5 5 5 2 2 2 3 2 4 4 5 2 3 3 6 5 3 6 6 5 5 7 8 7 5 5 4 5 5 2 1 4 5 6 6 8 9 9 10 11
14 13 10 7 8 6 6 8 8 4 2 3 3 4 5 2 2 4 3 2 2 3 4 6 2 3 1 5 3 2 6 5 6 3 7 8 7 6 6 5 4 5 6 6 4 2 1 4 5 6 8 10 10 12
14 10 6 7 7 7 5 3 3 2 2 3 3 4 1 2 2 3 1 1 5 5 5 5 0 2 6 2 2 3 2 3 6 5 9 10 9 6 5 5 6 6 6 6 6 5 3 1 4 6 8 10 11 12
9 2 8 8 7 7 2 2 3 4 3 3 1 3 4 2 1 1 2 2 3 4 2 3 5 3 1 3 3 2 2 6 6 7 8 9 5 6 4 4 5 5 5 6 6 6 4 2 4 7 10 10 12 13
2 7 7 7 2 2 2 2 2 2 4 2 1 2 4 1 2 3 3 3 2 2 3 2 2 2 3 3 4 5 5 5 5 6 5 5 4 3 3 4 5 4 4 5 5 5 5 3 5 5 11 11 12 14
7 7 7 3 2 2 2 3 2 2 2 2 3 2 2 1 3 1 3 2 3 3 1 2 2 2 2 1 4 5 5 4 3 3 2 2 3 4 3 4 5 5 3 3 4 3 3 4 4 4 5 8 9 10
11 7 2 1 3 2 2 1 2 3 1 3 2 2 1 2 1 3 3 3 3 2 3 3 1 2 2 1 1 2 3 3 4 5 5 5 4 5 5 5 3 3 3 2 2 2 3 3 3 5 5 6 9 9
2 3 2 3 1 2 2 2 0 3 3 2 3 3 2 0 1 1 1 1 2 1 1 1 2 2 3 5 6 6 8 8 8 8 8 6 5 5 5 5 6 5 4 3 3 4 4 4 4 4 8 6 7 8
2 3 2 1 2 1 1 2 4 3 3 2 2 2 1 0 1 2 3 3 2 0 2 3 6 7 8 10 10 11 12 11 11 9 7 8 8 8 7 6 6 6 5 4 4 3 4 4 6 5 8 10 10 9
3 2 1 2 2 1 1 1 3 2 3 3 2 1 1 2 2 2 3 1 1 1 5 7 10 11 12 13 14 14 13 13 10 9 8 8 8 9 8 8 6 7 6 5 4 4 5 7 7 8 10 10 10 9
3 3 4 3 3 3 2 2 1 2 1 1 2 2 2 3 3 2 4 2 6 9 9 10 8 8 8 8 9 9 9 8 9 9 9 9 9 9 11 9 8 7 7 5 6 5 7 7 10 8 10 12 11 11
1 5 3 2 1 2 2 3 3 1 3 4 3 3 2 2 2 3 3 4 8 9 8 8 7 6 7 8 8 8 11 10 9 9 9 10 9 7 8 8 8 8 8 7 7 8 9 8 9 9 9 9 14 14
4 4 4 5 4 4 4 4 4 5 3 5 4 4 3 3 4 4 4 6 6 8 9 8 9 9 8 7 6 6 2 3 4 7 8 11 10 10 10 10 9 9 9 8 7 10 12 10 11 13 11 12 11 15
4 4 3 2 2 2 2 2 1 1 3 5 5 6 5 5 4 4 5 4 6 10 10 10 8 6 5 5 6 6 3 4 5 6 8 9 9 10 11 10 12 10 9 8 10 11 12 13 14 11 11 11 14 14
2 3 3 3 2 1 3 4 5 6 5 5 3 6 4 7 5 4 4 9 11 11 7 6 8 7 4 4 4 3 9 9 9 10 9 9 7 6 10 9 7 10 9 9 10 10 11 12 14 13 13 13 13 13
2 2 2 4 4 5 6 6 5 5 5 4 3 4 3 2 2 3 6 8 8 7 9 10 11 10 9 12 12 10 6 4 8 15 15 11 10 7 9 11 12 10 8 9 9 10 15 13 14 15 15 13 12 12
3 2 2 8 6 6 5 4 6 5 5 3 2 1 0 3 4 6 7 9 11 10 10 11 13 14 13 13 13 13 13 12 11 11 10 9 9 9 10 11 10 11 10 11 11 11 11 14 14 14 13 12 12 12
2 1 6 5 4 4 4 4 5 6 3 3 4 3 3 2 2 6 9 9 9 10 12 13 13 12 12 13 12 10 10 12 14 16 13 11 11 12 12 12 11 9 11 12 10 12 11 13 13 15 14 14 14 13
2 3 4 5 5 4 2 3 4 4 3 3 3 3 2 2 4 6 7 8 9 11 12 12 11 12 13 9 9 8 6 7 8 9 15 10 11 13 13 12 10 9 11 11 9 11 15 14 13 14 14 16 14 14
5 5 4 3 2 2 3 1 2 3 3 3 4 4 5 5 6 3 2 6 7 9 9 9 9 9 13 14 14 11 13 12 15 13 11 10 10 7 8 10 9 11 13 12 11 13 15 19 16 16 15 15 14 14
Wind_Direction
269 272 275 281 278 273 263 276 294 280 280 281 271 284 260 261 273 240 291 192 250 262 283 273 296 287 315 262 290 38 228 191 222 216 235 185 243 184 216 207 195 202 200 206 230 211 218 136 139 231 63 108 119 148
277 267 271 272 273 273 264 264 276 287 292 259 260 268 251 252 270 240 257 179 243 254 295 316 283 282 273 275 292 288 338 306 6 266 218 204 209 157 209 187 224 219 238 206 234 222 99 172 29 95 38 136 154 146
276 297 266 275 278 288 286 232 267 278 290 261 258 259 242 249 255 226 274 208 214 265 267 239 250 237 221 237 240 277 110 344 105 344 326 346 209 255 192 214 161 145 172 179 189 131 112 147 150 124 189 148 126 118
274 263 268 278 294 285 264 239 272 284 273 248 261 247 227 255 245 235 253 219 251 271 277 113 123 223 245 219 216 223 291 292 285 268 270 254 204 268 179 9 255 62 172 153 135 138 163 166 183 135 127 124 120 116
306 295 275 289 298 285 225 240 269 278 273 271 262 279 234 247 225 255 258 237 253 288 316 323 301 324 233 208 207 207 234 265 261 238 226 173 90 215 159 194 169 195 135 215 240 86 275 75 137 155 148 141 131 128
269 280 277 285 300 288 258 248 263 280 283 271 253 278 241 249 227 248 229 178 185 210 267 271 59 282 164 170 164 178 189 233 273 295 34 115 50 285 203 217 78 138 104 30 110 107 94 128 142 162 146 139 137 132
252 259 265 274 286 298 287 271 256 279 320 321 262 250 286 244 240 264 357 104 202 250 250 252 214 112 166 157 161 160 181 150 304 324 212 341 134 287 232 226 131 136 115 124 113 137 138 167 160 155 144 128 134 125
240 245 251 264 276 289 263 240 285 261 149 324 283 326 298 274 268 246 194 205 239 244 258 266 254 220 189 179 166 192 174 187 115 268 177 233 158 259 204 97 100 112 125 134 146 104 41 106 149 147 146 150 141 141
234 236 241 254 263 255 251 210 21 328 296 222 271 293 251 223 223 123 132 163 247 275 286 218 280 92 183 181 110 168 241 206 112 208 184 231 174 223 84 112 98 70 81 115 138 152 149 153 159 163 168 170 160 156
225 224 233 244 253 220 235 140 9 307 257 265 267 193 214 110 40 138 170 202 203 205 223 266 116 271 280 193 193 145 198 176 191 131 137 214 215 76 72 35 345 291 259 237 213 192 177 180 185 181 193 189 183 169
220 213 218 229 239 207 209 115 290 296 257 208 200 219 49 241 199 205 202 202 186 221 197 166 193 238 270 222 213 228 187 175 216 139 224 187 212 157 146 70 24 322 259 239 244 258 250 254 220 199 193 177 185 174
206 200 203 213 232 188 177 200 268 224 274 358 347 218 186 207 208 215 193 180 216 213 154 182 160 155 245 336 313 245 198 202 198 137 198 223 100 128 143 77 40 4 274 227 218 228 228 247 227 209 191 186 181 175
194 186 187 196 203 172 211 223 251 7 317 223 220 219 183 200 233 229 181 173 200 162 170 171 145 207 158 156 232 219 189 187 137 187 200 68 131 128 115 68 15 24 357 229 201 215 234 227 204 199 194 180 183 170
170 167 173 180 183 180 199 281 1 169 270 252 211 209 228 192 230 242 328 53 71 221 172 158 148 135 102 103 247 208 89 154 201 191 190 134 149 117 93 50 18 20 28 39 190 211 211 197 196 197 197 176 162 160
156 156 163 180 190 183 170 225 256 206 245 244 224 235 213 27 263 283 313 253 26 273 177 120 340 116 120 236 237 131 171 196 207 168 84 127 116 102 86 65 35 26 30 37 21 0 183 163 171 169 178 168 162 152
141 140 162 158 189 196 185 217 223 250 256 255 239 270 169 298 294 235 284 183 199 173 139 104 87 240 214 207 173 183 191 214 86 89 119 141 144 114 82 50 32 18 19 27 22 32 5 8 119 139 154 162 159 152
174 115 147 172 168 132 126 236 231 232 266 270 29 280 258 184 309 334 293 205 160 183 145 145 173 230 311 212 203 352 11 57 101 129 134 127 131 105 74 43 23 11 9 21 18 35 23 6 119 142 142 146 142 144
75 116 139 122 130 166 206 236 266 241 239 219 260 348 63 303 274 194 199 116 133 235 193 167 136 184 234 203 168 123 113 129 127 138 131 138 134 67 16 351 346 343 355 12 16 48 17 80 95 84 120 128 130 128
106 118 129 138 312 290 256 183 261 274 38 337 315 36 142 119 248 243 165 170 241 291 154 217 230 202 121 359 94 106 132 152 163 158 188 235 273 284 308 296 296 295 329 356 353 18 62 0 91 114 144 152 140 131
93 83 65 330 278 270 240 140 246 285 20 8 283 337 301 29 56 158 157 189 215 215 189 206 148 128 133 117 24 312 286 278 271 265 259 245 228 230 245 259 269 308 270 232 234 283 145 115 113 135 147 151 149 137
192 41 294 279 306 307 316 325 146 6 326 319 11 327 5 142 163 131 95 323 255 317 223 21 315 345 325 289 276 266 258 248 248 250 259 259 236 222 236 217 222 234 248 226 236 145 212 158 133 127 137 114 106 110
72 269 279 196 288 294 268 56 324 352 274 340 294 320 321 69 90 57 336 248 259 21 338 329 316 322 303 288 282 278 270 274 256 247 244 263 250 241 236 230 219 228 218 218 213 208 160 126 136 130 111 122 115 109
253 279 297 324 301 88 51 285 291 17 306 1 276 252 59 345 21 296 245 268 8 141 342 337 328 312 291 286 278 267 253 244 238 230 222 217 218 228 235 221 226 232 217 197 196 193 121 111 107 122 126 123 124 125
215 10 358 1 344 9 312 341 301 302 278 325 332 347 29 345 309 254 275 354 33 5 336 313 298 293 288 268 262 259 248 220 220 216 208 203 203 201 211 212 205 215 241 200 185 178 125 128 122 124 129 130 135 139
339 7 331 328 16 323 17 23 344 328 13 2 343 9 359 290 291 351 340 338 345 317 304 299 291 272 270 277 275 263 260 200 202 203 188 189 188 180 184 201 182 190 219 202 181 169 128 138 122 121 124 137 141 142
66 28 359 21 8 28 356 1 32 360 340 343 359 340 342 308 341 356 344 331 313 307 309 302 303 304 299 281 292 300 294 160 192 187 169 171 173 167 165 174 172 185 201 199 170 147 144 135 131 140 148 155 142 148
52 36 13 41 316 303 356 341 267 358 19 9 355 339 18 1 352 5 326 316 308 308 301 298 288 292 315 326 329 332 348 116 95 112 124 142 149 163 165 167 173 175 170 170 160 146 143 139 140 137 137 147 148 145
42 16 50 19 54 348 19 27 25 20 12 353 358 22 28 4 347 337 306 303 304 297 305 336 346 330 346 3 16 39 96 105 104 112 121 127 150 156 159 165 154 117 153 147 139 136 135 132 134 138 153 146 141 146
18 29 292 60 91 65 36 16 16 34 360 352 22 38 31 331 288 294 297 301 320 357 16 11 13 12 54 55 52 33 45 98 121 115 117 123 134 130 131 126 129 109 98 93 73 110 124 129 144 156 140 138 137 135
78 351 13 54 50 50 37 14 55 56 48 43 56 156 8 336 311 315 343 359 9 7 21 27 24 33 34 40 54 52 40 34 50 63 81 81 87 97 96 96 97 101 105 104 102 100 112 122 110 122 128 134 140 137
24 37 82 79 75 85 82 71 85 78 71 43 28 28 11 323 309 357 358 1 17 25 31 34 26 33 40 33 17 17 43 29 18 56 69 81 91 94 97 99 99 103 111 107 113 120 131 127 127 129 136 135 137 145
13 52 107 105 110 104 140 92 82 82 70 37 39 25 348 97 57 11 351 357 22 43 40 31 32 26 14 25 63 78 39 40 29 25 58 69 73 89 95 93 86 83 93 106 122 127 126 125 127 124 126 133 134 132
93 89 87 98 120 121 88 80 82 108 77 49 43 27 35 44 65 11 4 25 25 29 32 40 43 38 37 33 28 37 62 71 63 52 51 40 34 58 110 119 122 128 130 127 127 124 126 124 123 125 124 126 130 138